Satellite: SO-50
Catalog number: 27607
Epoch time:      12214.81135617
Element set:    0828
Inclination:      064.5566 deg
RA of node:       156.1044 deg
Eccentricity:    0.0080572
Arg of perigee:   239.4261 deg
Mean anomaly:     119.8886 deg
Mean motion:   14.72445839 rev/day
Decay rate:      +4.07e-06 rev/day^2
Epoch rev:           51668
Checksum:              326

Satellite: CO-55
Catalog number: 27844
Epoch time:      12214.61830349
Element set:     430
Inclination:      098.7033 deg
RA of node:       222.3376 deg
Eccentricity:    0.0010673
Arg of perigee:   089.7898 deg
Mean anomaly:     270.4522 deg
Mean motion:   14.21048711 rev/day
Decay rate:       1.48e-06 rev/day^2
Epoch rev:           47134
Checksum:              300

Satellite: CO-57
Catalog number: 27848
Epoch time:      12214.48909375
Element set:    0381
Inclination:      098.7123 deg
RA of node:       221.5643 deg
Eccentricity:    0.0010605
Arg of perigee:   094.9879 deg
Mean anomaly:     265.2532 deg
Mean motion:   14.20796817 rev/day
Decay rate:       +8.9e-07 rev/day^2
Epoch rev:           47126
Checksum:              339

Satellite: AO-51
Catalog number: 28375
Epoch time:      12214.90942143
Element set:     330
Inclination:      098.1516 deg
RA of node:       178.0683 deg
Eccentricity:    0.0082760
Arg of perigee:   263.0655 deg
Mean anomaly:     096.1082 deg
Mean motion:   14.40970870 rev/day
Decay rate:       1.23e-06 rev/day^2
Epoch rev:           42535
Checksum:              293

Satellite: CP3
Catalog number: 31129
Epoch time:      12214.59807007
Element set:     227
Inclination:      097.8823 deg
RA of node:       219.7023 deg
Eccentricity:    0.0100889
Arg of perigee:   342.6817 deg
Mean anomaly:     017.0957 deg
Mean motion:   14.53145628 rev/day
Decay rate:       7.66e-06 rev/day^2
Epoch rev:           28057
Checksum:              312

Satellite: CO-65
Catalog number: 32785
Epoch time:      12214.78692883
Element set:    0377
Inclination:      097.7973 deg
RA of node:       274.7543 deg
Eccentricity:    0.0013291
Arg of perigee:   274.0307 deg
Mean anomaly:     085.9390 deg
Mean motion:   14.83080158 rev/day
Decay rate:      +8.62e-06 rev/day^2
Epoch rev:           23052
Checksum:              339

Satellite: PRISM
Catalog number: 33493
Epoch time:      12215.71753804
Element set:     938
Inclination:      098.1765 deg
RA of node:       357.4092 deg
Eccentricity:    0.0019470
Arg of perigee:   143.1022 deg
Mean anomaly:     217.1542 deg
Mean motion:   14.84084721 rev/day
Decay rate:      2.180e-05 rev/day^2
Epoch rev:           19065
Checksum:              289

Satellite: SOHLA-1
Catalog number: 33496
Epoch time:      12215.79952920
Element set:     794
Inclination:      098.1087 deg
RA of node:       327.2372 deg
Eccentricity:    0.0005585
Arg of perigee:   252.0910 deg
Mean anomaly:     107.9678 deg
Mean motion:   14.70005835 rev/day
Decay rate:       3.24e-06 rev/day^2
Epoch rev:           18909
Checksum:              318

Satellite: SO-67
Catalog number: 35870
Epoch time:      12215.87047543
Element set:     197
Inclination:      097.2298 deg
RA of node:       249.9782 deg
Eccentricity:    0.0003109
Arg of perigee:   041.5783 deg
Mean anomaly:     083.9538 deg
Mean motion:   15.24148636 rev/day
Decay rate:      3.840e-05 rev/day^2
Epoch rev:           15972
Checksum:              345

Satellite: TISAT-1
Catalog number: 36799
Epoch time:      12215.72430062
Element set:     214
Inclination:      098.0600 deg
RA of node:       292.3980 deg
Eccentricity:    0.0015429
Arg of perigee:   027.2987 deg
Mean anomaly:     332.9062 deg
Mean motion:   14.82092088 rev/day
Decay rate:      1.283e-05 rev/day^2
Epoch rev:           11138
Checksum:              293

Satellite: STUDSAT
Catalog number: 36801
Epoch time:      12214.90614212
Element set:    0457
Inclination:      098.0667 deg
RA of node:       292.4968 deg
Eccentricity:    0.0012995
Arg of perigee:   016.1262 deg
Mean anomaly:     344.0372 deg
Mean motion:   14.84673007 rev/day
Decay rate:     +3.572e-05 rev/day^2
Epoch rev:           11130
Checksum:              285

Satellite: FO-69
Catalog number: 37227
Epoch time:      12179.46825757
Element set:    0219
Inclination:      071.9703 deg
RA of node:       289.2712 deg
Eccentricity:    0.0018108
Arg of perigee:   298.3339 deg
Mean anomaly:     061.6016 deg
Mean motion:   14.77092260 rev/day
Decay rate:      +1.66e-06 rev/day^2
Epoch rev:           03761
Checksum:              325

Satellite: FO-70
Catalog number: 37380
Epoch time:      12179.47554455
Element set:    0223
Inclination:      071.9743 deg
RA of node:       289.8278 deg
Eccentricity:    0.0018623
Arg of perigee:   295.0880 deg
Mean anomaly:     064.8372 deg
Mean motion:   14.76843679 rev/day
Decay rate:      +2.08e-06 rev/day^2
Epoch rev:           03750
Checksum:              343

Satellite: ALMASAT-1
Catalog number: 38078
Epoch time:      12215.44514924
Element set:     439
Inclination:      069.4874 deg
RA of node:       212.3731 deg
Eccentricity:    0.0753127
Arg of perigee:   190.9032 deg
Mean anomaly:     167.4891 deg
Mean motion:   14.10627630 rev/day
Decay rate:     1.5564e-04 rev/day^2
Epoch rev:            2407
Checksum:              301

